Regional Weather Roundup
Issued by NWS

Home | Current Version | Previous Version | Text Only | Print | Product List | Glossary On
Versions: 1 2 3 4 5 6 7 8 9 10 11 12 13 14 15 16 17 18 19 20 21 22 23 24 25 26 27 28 29 30 31 32 33 34 35 36 37 38 39 40 41 42 43 44 45 46 47 48 49 50
000
ASHW40 PHFO 092343
RWRHI

WEATHER ROUNDUP FOR HAWAII
NATIONAL WEATHER SERVICE HONOLULU HI
100 PM HST FRI DEC 09 2016

THIS IS AN AUTOMATED REPORT THAT HAS NOT BEEN QUALITY CONTROLLED.

NOTE..."FAIR" INDICATES FEW OR NO CLOUDS BELOW 12,000 FEET WITH NO
SIGNIFICANT WEATHER AND/OR OBSTRUCTIONS TO VISIBILITY.

* - THESE SITES REPORT LIMITED FIELDS

HIZ001>004-100000-
KAUAI-NIIHAU-

CITY           SKY/WX    TMP DP  RH WIND       PRES   REMARKS
LIHUE APT      CLOUDY    78  69  73 E8        29.91F
PORT ALLEN*      N/A     81 N/A N/A SE8         N/A
POIPU*           N/A     82 N/A N/A SE2G8       N/A
PRINCEVILLE*   NOT AVBL
KOKOLE POINT*  NOT AVBL
MOLOAA DAIRY*    N/A     77  70  78 NE1         N/A
WAIMEA HTS*      N/A     81  68  65 S8          N/A
PUU OPAE*      NOT AVBL
PUU LUA*       NOT AVBL
MAKAHA RIDGE*    N/A     72  64  78 W1          N/A
$$

HIZ005>011-100000-
OAHU-

CITY           SKY/WX    TMP DP  RH WIND       PRES   REMARKS
HONOLULU       CLOUDY    78  64  61 S3        29.92F
KALAELOA       CLOUDY    78  66  66 S3        29.93F
KANEOHE MCB    NOT AVBL
WHEELER FIELD  PTSUNNY   75  72  88 W3        29.93F
BELLOWS*         N/A    N/A N/A N/A NE3         N/A
KAHUKU*          N/A    N/A N/A N/A NE2         N/A
WHEELER*         N/A    N/A N/A N/A S7          N/A
WAIANAE HARBOR   N/A    N/A N/A N/A SE5         N/A
DILLINGHAM*      N/A     79  66  65 MISG        N/A
KAHUKU TRN*      N/A     77  72  83 W1          N/A
KAWAILOA*        N/A     72  64  78 S3          N/A
KII*             N/A     75  70  83 E6G12       N/A
MAKUA RANGE*     N/A    N/A N/A N/A E5G12       N/A
OAHU FOREST NW NOT AVBL
SCHOFIELD BRK*   N/A     70  68  94 MISG        N/A
SCHOFIELD S*   NOT AVBL
WAIANAE VLY*   NOT AVBL
KUAOKALA*      NOT AVBL
HONOULIUULI*   NOT AVBL
MOKUOLOE IS*   NOT AVBL
PALEHUA*       NOT AVBL
WAIAWA PHB*    NOT AVBL
$$

HIZ012>013-100000-
MOLOKAI-

CITY           SKY/WX    TMP DP  RH WIND       PRES   REMARKS
MOLOKAI AIRPT  MOSUNNY   75  72  88 S6        29.93F
KALAUPAPA      NOT AVBL
MAKAPULAPAI*     N/A     77  72  83 CALM        N/A
MOLOKAI 1*     NOT AVBL
PUU ALII*        N/A     62  61  97 SE2G8       N/A
$$

HIZ016-100000-
KAHOOLAWE-

CITY           SKY/WX    TMP DP  RH WIND       PRES   REMARKS
KAHOOLAWE*       N/A     70 N/A N/A S1          N/A
HAKIOAWA*        N/A     72  68  87 MISG      30.32F
HONOKANAIA*      N/A     79  69  72 E6G14     29.89
KANELOA*         N/A     75  70  83 S5        30.01F
KEALIALALO*    NOT AVBL
LUA MAKIKA*    NOT AVBL
$$

HIZ014>015-100000-
LANAI-

CITY           SKY/WX    TMP DP  RH WIND       PRES   REMARKS
LANAI CITY     PTSUNNY   72  70  94 S9        29.97F
LANAI 1*       NOT AVBL
$$

HIZ017>028-100000-
MAUI-

CITY           SKY/WX    TMP DP  RH WIND       PRES   REMARKS
KAHULUI        CLOUDY    78  68  71 SW13      29.93F
KAPALUA-W MAUI CLOUDY    77  66  69 S8        29.95F
HANA AIRPORT   LGT RAIN  75  72  88 W2        29.93F
HANA*            N/A     75 N/A N/A W2          N/A
HALEAKALA SUMM   N/A     43  43 100 S9G31       N/A
MAALAEA BAY*     N/A     77 N/A N/A SW10G16     N/A
HALEAKALA*     NOT AVBL
KAUPO GAP*       N/A     73  72  94 SE3G13      N/A
KULA 1*          N/A     60  51  73 S7G13       N/A
$$

HIZ023>026-100000-
BIG ISLAND OF HAWAII COAST AND LOWER SLOPES-

CITY           SKY/WX    TMP DP  RH WIND       PRES   REMARKS
KAILUA KONA    PTSUNNY   78  70  76 S6        29.90F
HILO           CLOUDY    79  69  71 SE9       29.90F
HONOKAA*         N/A     73 N/A N/A VRB1        N/A
KAWAIHAE MWT*    N/A     77 N/A N/A SE1         N/A
KAWAIHAE*        N/A     77 N/A N/A N2        29.91F
SOUTH POINT*     N/A     77 N/A N/A NE13G18     N/A
UPOLU AIRPORT* NOT AVBL
KAMUELA*       CLOUDY    68  66  94 W7        30.01F
HAKALAU*         N/A     60  52  74 SE5         N/A
KALOKO-HONOKO*   N/A     79  70  73 S3        29.89F
PALI 2*          N/A     73  59  60 SE6G13      N/A
KEALAKOMO*       N/A     79  70  73 S5          N/A
KAUPULEHU*     NOT AVBL
KAPAPALA*      NOT AVBL
LOWER KAHUKU*    N/A     70  59  68 NE2         N/A
PUHE CS*         N/A     75  70  83 S1          N/A
PUHO CS*         N/A     79  67  65 W2          N/A
PTA KEAMUKU*     N/A     66  66 100 CALM        N/A
WAIKOLOA*        N/A     73  72  94 W3          N/A
$$

HIZ027>028-100000-
BIG ISLAND OF HAWAII INTERIOR AND SUMMMITS-

CITY           SKY/WX    TMP DP  RH WIND       PRES   REMARKS
BRADSHAW FIELD CLOUDY    61  53  76 W3        30.26F
MK VISITOR CEN   N/A     52  41  66 W10         N/A
MAUNA KEA*       N/A     34  32  93 SW46G58     N/A  WCI  17
MAUNA LOA*       N/A     48  36  61 MISG        N/A
MAUNA LOA 1*   NOT AVBL
PTA KIPUKA*      N/A     54  48  82 W1          N/A
PTA RANGE 17*    N/A     63  55  77 SW1G7       N/A
PTA WEST*        N/A     64  63  94 N1          N/A
NENE CABIN*      N/A     61  43  51 SE2         N/A
AHUMOA*        NOT AVBL
PTA PORTABLE*  NOT AVBL
PUU MALI*        N/A     57  57 100 N3G9        N/A
$$

HIC003-100000-
NORTHWEST ISLANDS-

CITY           SKY/WX    TMP DP  RH WIND       PRES   REMARKS
MIDWAY ISLAND  SUNNY     73  63  68 S9        30.03F
MIDWAY NOS*      N/A     73 N/A N/A MISG      30.00F
FRENCH FRIGATE NOT AVBL
$$

PHZ110>124-180-100000-
BUOY REPORTS

STATION/POSITION TIME  TEMP    WIND        PRES    WAVE   SWELL
                       AIR SEA DIR/SP/G            HT/PER HT/DIR
                 (UTC) (F)     (DEG/KT/KT) (MB)    (FT/S) (FT/D)
BUOY 51001       2320   74 78  220/  2/  6 1011.6
BUOY 51101       2250   75 79   CALM  /  2 1013.0F   6/11   5
BUOY 51100       NOT AVBL
BUOY 51002       2320   78 78   90/ 16/ 19 1011.1
BUOY 51003       2250   77 80  190/  6/  8 1012.3F   5/11   5
BUOY 51004       2250   76 79  140/ 16/ 19 1013.0F   7/ 7   3/350
BARBERS PT BUOY  NOT AVBL
WAIMEA BAY BUOY  NOT AVBL
KAILUA BAY BUOY  2304      78                N/A     4/11   2/ 20
LANAI BUOY       2315      78                N/A     2/ 8   2/270
BARBERS PT 2     2309      78                N/A     3/12   2/310
PAUWELA MAUI     2309      77                N/A     4/13   2/340
HILO             2312      77                N/A     5/12   2/ 10
KANEOHE BAY BUOY 2306      78                N/A     3/11   2/ 20
HANALEI KAUAI    2322      78                N/A     5/11   3/340
KAHULUI HARBOR   2306   77 78  310/  4/  5 1013.0
HONOLULU HARBOR  2306   78 78  220/  4/  5 1013.7
KILO NALU        NOT AVBL
HILO HARBOR      2306   82 76  150/  6/  8 1012.0
MOKUOLOE         2236   77 76  330/  3/  4 1013.5F
NAWILIWILI       2306   77 80  130/  9/ 10 1012.5
WHOTS BUOY       NOT AVBL
BUOY 51028       NOT AVBL
$$

......................KEY........................................
  SKY/WX - SKY CONDITIONS/PRESENT WEATHER
  TMP    - TEMPERATURE IN FAHRENHEIT
  DWPT   - DEWPOINT IN FAHRENHEIT
  RH     - RELATIVE HUMIDITY IN PERCENT
  WIND   - DIRECTION AND SPEED /MPH FOR ISLANDS...KTS FOR BUOYS/
  PRES   - MEAN SEA LEVEL PRESSURE IN INCHES OF HG
  VSB    - VISIBILITY IN MILES
  HX     - HEAT INDEX
  WCI    - WIND CHILL INDEX
  VRB    - VARIABLE WIND DIRECTION
  N/A    - NOT AVAILABLE



USA.gov is the U.S. government's official web portal to all federal, state and local government web resources and services.